Time,TemperatureF,DewpointF,PressureIn,WindDirection,WindDirectionDegrees,WindSpeedMPH,WindSpeedGustMPH,Humidity,HourlyPrecipIn,Conditions,Clouds,dailyrainin,SoftwareType,DateUTC
2013-01-19 00:05:00,32.0,18.0,30.06,SW,229,5.0,17.0,57,0.00,,,0.03,weatherlink.com 1.10,2013-01-19 05:05:00,
2013-01-19 00:20:00,32.3,18.0,30.04,SSW,213,13.0,25.0,57,0.00,,,0.00,weatherlink.com 1.10,2013-01-19 05:20:00,
2013-01-19 00:35:00,32.7,18.0,30.04,SE,134,3.0,19.0,56,0.00,,,0.00,weatherlink.com 1.10,2013-01-19 05:35:00,
2013-01-19 00:50:00,33.0,18.0,30.04,SSW,196,16.0,20.0,55,0.00,,,0.00,weatherlink.com 1.10,2013-01-19 05:50:00,
2013-01-19 01:05:00,33.2,18.0,30.05,WSW,238,10.0,20.0,55,0.00,,,0.00,weatherlink.com 1.10,2013-01-19 06:05:00,
2013-01-19 01:20:00,33.2,17.0,30.04,SSW,195,7.0,21.0,52,0.00,,,0.00,weatherlink.com 1.10,2013-01-19 06:20:00,
2013-01-19 01:35:00,33.4,17.0,30.04,SSW,211,6.0,18.0,52,0.00,,,0.00,weatherlink.com 1.10,2013-01-19 06:35:00,
2013-01-19 01:50:00,33.7,18.0,30.04,SSE,167,3.0,19.0,52,0.00,,,0.00,weatherlink.com 1.10,2013-01-19 06:50:00,
2013-01-19 02:05:00,34.1,18.0,30.04,SSW,193,10.0,21.0,51,0.00,,,0.00,weatherlink.com 1.10,2013-01-19 07:05:00,
2013-01-19 02:20:00,34.6,18.0,30.04,SW,215,10.0,21.0,50,0.00,,,0.00,weatherlink.com 1.10,2013-01-19 07:20:00,
2013-01-19 02:35:00,34.7,17.0,30.04,SW,223,9.0,19.0,49,0.00,,,0.00,weatherlink.com 1.10,2013-01-19 07:35:00,
2013-01-19 02:50:00,34.9,18.0,30.03,SW,215,10.0,16.0,51,0.00,,,0.00,weatherlink.com 1.10,2013-01-19 07:50:00,
2013-01-19 03:05:00,35.0,18.0,30.02,SW,227,5.0,16.0,50,0.00,,,0.00,weatherlink.com 1.10,2013-01-19 08:05:00,
2013-01-19 03:20:00,35.3,18.0,30.01,ENE,76,3.0,15.0,50,0.00,,,0.00,weatherlink.com 1.10,2013-01-19 08:20:00,
2013-01-19 03:35:00,35.6,19.0,30.01,SSW,209,7.0,16.0,51,0.00,,,0.00,weatherlink.com 1.10,2013-01-19 08:35:00,
2013-01-19 03:50:00,36.1,19.0,30.00,WSW,239,4.0,17.0,51,0.00,,,0.00,weatherlink.com 1.10,2013-01-19 08:50:00,
2013-01-19 04:05:00,36.4,20.0,30.00,NW,323,2.0,12.0,51,0.00,,,0.00,weatherlink.com 1.10,2013-01-19 09:05:00,
2013-01-19 04:20:00,36.6,20.0,30.00,South,179,6.0,13.0,52,0.00,,,0.00,weatherlink.com 1.10,2013-01-19 09:20:00,
2013-01-19 04:35:00,36.6,20.0,29.99,SSW,207,9.0,11.0,52,0.00,,,0.00,weatherlink.com 1.10,2013-01-19 09:35:00,
2013-01-19 04:50:00,36.4,21.0,29.99,South,191,7.0,10.0,54,0.00,,,0.00,weatherlink.com 1.10,2013-01-19 09:50:00,
2013-01-19 05:05:00,36.2,21.0,29.98,SW,225,5.0,13.0,54,0.00,,,0.00,weatherlink.com 1.10,2013-01-19 10:05:00,
2013-01-19 05:20:00,36.3,21.0,29.98,South,169,4.0,11.0,54,0.00,,,0.00,weatherlink.com 1.10,2013-01-19 10:20:00,
2013-01-19 05:35:00,36.1,21.0,29.98,SSW,193,3.0,10.0,55,0.00,,,0.00,weatherlink.com 1.10,2013-01-19 10:35:00,
2013-01-19 05:50:00,36.1,21.0,29.98,SSW,213,3.0,9.0,55,0.00,,,0.00,weatherlink.com 1.10,2013-01-19 10:50:00,
2013-01-19 06:05:00,36.5,22.0,29.98,SW,217,7.0,9.0,55,0.00,,,0.00,weatherlink.com 1.10,2013-01-19 11:05:00,
2013-01-19 07:50:00,39.1,24.0,29.96,WSW,237,10.0,14.0,55,0.00,,,0.00,weatherlink.com 1.10,2013-01-19 12:50:00,
2013-01-19 08:06:00,39.0,23.0,29.96,SW,234,10.0,16.0,54,0.00,,,0.00,weatherlink.com 1.10,2013-01-19 13:06:00,
2013-01-19 08:21:00,38.7,24.0,29.96,WSW,250,9.0,17.0,55,0.00,,,0.00,weatherlink.com 1.10,2013-01-19 13:21:00,
2013-01-19 08:36:00,38.7,24.0,29.96,SW,226,10.0,19.0,55,0.00,,,0.00,weatherlink.com 1.10,2013-01-19 13:36:00,
2013-01-19 08:51:00,39.2,24.0,29.96,WSW,238,5.0,18.0,55,0.00,,,0.00,weatherlink.com 1.10,2013-01-19 13:51:00,
2013-01-19 09:06:00,39.2,24.0,29.97,WSW,253,9.0,17.0,55,0.00,,,0.00,weatherlink.com 1.10,2013-01-19 14:06:00,
2013-01-19 09:21:00,39.2,25.0,29.97,SW,231,5.0,18.0,56,0.00,,,0.00,weatherlink.com 1.10,2013-01-19 14:21:00,
2013-01-19 09:36:00,39.6,25.0,29.97,WSW,242,9.0,15.0,56,0.00,,,0.00,weatherlink.com 1.10,2013-01-19 14:36:00,
2013-01-19 09:51:00,39.9,25.0,29.98,WSW,252,9.0,15.0,55,0.00,,,0.00,weatherlink.com 1.10,2013-01-19 14:51:00,
2013-01-19 10:06:00,40.4,25.0,29.98,WSW,250,15.0,17.0,55,0.00,,,0.00,weatherlink.com 1.10,2013-01-19 15:06:00,
2013-01-19 10:36:00,41.4,27.0,29.98,South,173,7.0,21.0,56,0.00,,,0.00,weatherlink.com 1.10,2013-01-19 15:36:00,
2013-01-19 10:51:00,41.9,27.0,29.97,WSW,250,9.0,20.0,56,0.00,,,0.00,weatherlink.com 1.10,2013-01-19 15:51:00,
2013-01-19 11:06:00,42.3,27.0,29.96,WNW,290,5.0,15.0,56,0.00,,,0.00,weatherlink.com 1.10,2013-01-19 16:06:00,
2013-01-19 11:21:00,43.2,28.0,29.95,West,262,14.0,21.0,55,0.00,,,0.00,weatherlink.com 1.10,2013-01-19 16:21:00,
2013-01-19 11:36:00,43.6,28.0,29.94,West,259,14.0,22.0,55,0.00,,,0.00,weatherlink.com 1.10,2013-01-19 16:36:00,
2013-01-19 12:21:00,44.7,29.0,29.93,WSW,253,10.0,24.0,54,0.01,,,0.01,weatherlink.com 1.10,2013-01-19 17:21:00,
2013-01-19 12:51:00,44.2,29.0,29.91,WSW,245,7.0,17.0,56,0.01,,,0.01,weatherlink.com 1.10,2013-01-19 17:51:00,
2013-01-19 13:21:00,44.1,29.0,29.91,SSW,207,4.0,17.0,56,0.00,,,0.01,weatherlink.com 1.10,2013-01-19 18:21:00,
2013-01-19 14:06:00,44.2,30.0,29.90,West,265,6.0,16.0,58,0.00,,,0.01,weatherlink.com 1.10,2013-01-19 19:06:00,
2013-01-19 14:21:00,44.8,30.0,29.89,SW,229,5.0,13.0,57,0.00,,,0.01,weatherlink.com 1.10,2013-01-19 19:21:00,
2013-01-19 14:36:00,45.3,30.0,29.89,WSW,258,6.0,12.0,56,0.00,,,0.01,weatherlink.com 1.10,2013-01-19 19:36:00,
2013-01-19 14:51:00,45.8,31.0,29.88,SW,225,7.0,10.0,56,0.00,,,0.01,weatherlink.com 1.10,2013-01-19 19:51:00,
2013-01-19 15:06:00,45.7,31.0,29.88,WSW,256,6.0,11.0,56,0.00,,,0.01,weatherlink.com 1.10,2013-01-19 20:06:00,
2013-01-19 15:37:00,45.8,30.0,29.87,SW,236,5.0,14.0,55,0.00,,,0.01,weatherlink.com 1.10,2013-01-19 20:37:00,
2013-01-19 15:52:00,45.2,31.0,29.86,WSW,246,4.0,9.0,57,0.00,,,0.01,weatherlink.com 1.10,2013-01-19 20:52:00,
2013-01-19 16:06:00,44.9,31.0,29.86,WSW,250,3.0,9.0,58,0.00,,,0.01,weatherlink.com 1.10,2013-01-19 21:06:00,
2013-01-19 16:52:00,43.9,31.0,29.83,SW,221,0.0,2.0,60,0.00,,,0.01,weatherlink.com 1.10,2013-01-19 21:52:00,
2013-01-19 17:22:00,42.9,30.0,29.81,South,172,0.0,2.0,61,0.00,,,0.01,weatherlink.com 1.10,2013-01-19 22:22:00,
2013-01-19 18:07:00,42.2,31.0,29.78,SSE,157,1.0,2.0,65,0.00,,,0.01,weatherlink.com 1.10,2013-01-19 23:07:00,
2013-01-19 18:22:00,41.8,31.0,29.77,SSE,157,0.0,2.0,65,0.00,,,0.01,weatherlink.com 1.10,2013-01-19 23:22:00,
2013-01-19 18:37:00,42.9,31.0,29.76,SSE,150,1.0,5.0,62,0.00,,,0.01,weatherlink.com 1.10,2013-01-19 23:37:00,
2013-01-19 19:07:00,44.4,31.0,29.75,SSW,204,4.0,8.0,59,0.00,,,0.01,weatherlink.com 1.10,2013-01-20 00:07:00,
2013-01-19 19:52:00,46.1,28.0,29.73,SSE,164,7.0,11.0,49,0.00,,,0.01,weatherlink.com 1.10,2013-01-20 00:52:00,
2013-01-19 20:07:00,45.8,27.0,29.73,SW,228,4.0,13.0,48,0.00,,,0.01,weatherlink.com 1.10,2013-01-20 01:07:00,
2013-01-19 20:22:00,46.0,27.0,29.72,SSW,194,6.0,13.0,47,0.00,,,0.01,weatherlink.com 1.10,2013-01-20 01:22:00,
2013-01-19 20:37:00,46.2,26.0,29.71,SSE,165,5.0,13.0,46,0.00,,,0.01,weatherlink.com 1.10,2013-01-20 01:37:00,
2013-01-19 20:52:00,46.0,26.0,29.71,SW,223,8.0,13.0,46,0.00,,,0.01,weatherlink.com 1.10,2013-01-20 01:52:00,
2013-01-19 21:07:00,46.1,26.0,29.70,South,182,2.0,12.0,46,0.00,,,0.01,weatherlink.com 1.10,2013-01-20 02:07:00,
2013-01-19 21:22:00,46.1,27.0,29.70,SW,219,6.0,10.0,47,0.00,,,0.01,weatherlink.com 1.10,2013-01-20 02:22:00,
2013-01-19 21:37:00,46.4,26.0,29.69,SSW,205,2.0,12.0,46,0.00,,,0.01,weatherlink.com 1.10,2013-01-20 02:37:00,
2013-01-19 21:52:00,46.3,26.0,29.68,South,169,4.0,12.0,46,0.00,,,0.01,weatherlink.com 1.10,2013-01-20 02:52:00,
2013-01-19 22:07:00,46.6,26.0,29.67,West,261,8.0,12.0,45,0.00,,,0.01,weatherlink.com 1.10,2013-01-20 03:07:00,
2013-01-19 22:22:00,46.6,27.0,29.67,SW,228,7.0,12.0,46,0.00,,,0.01,weatherlink.com 1.10,2013-01-20 03:22:00,
2013-01-19 22:37:00,47.0,26.0,29.66,SW,236,2.0,15.0,45,0.00,,,0.01,weatherlink.com 1.10,2013-01-20 03:37:00,
2013-01-19 22:52:00,46.9,27.0,29.65,South,182,6.0,11.0,46,0.00,,,0.01,weatherlink.com 1.10,2013-01-20 03:52:00,
2013-01-19 23:07:00,47.3,27.0,29.64,West,261,7.0,16.0,46,0.00,,,0.01,weatherlink.com 1.10,2013-01-20 04:07:00,
2013-01-19 23:22:00,47.0,27.0,29.63,SW,229,3.0,14.0,46,0.00,,,0.01,weatherlink.com 1.10,2013-01-20 04:22:00,
2013-01-19 23:38:00,47.1,27.0,29.62,SW,223,5.0,18.0,46,0.00,,,0.01,weatherlink.com 1.10,2013-01-20 04:38:00,
2013-01-19 23:53:00,46.8,27.0,29.61,SSE,166,3.0,15.0,47,0.00,,,0.01,weatherlink.com 1.10,2013-01-20 04:53:00,